contact:dominique.lefevre@mio.osupytheas.fr, maurice.libes@osupytheas.fr, didier.mallarino@osupytheas.fr
Project:EMSO http://www.emso-fr.org/EMSO-France
Depth: 2436.0 m
Title:EMSO Ligure Ouest : Data MII capteur MICROCAT
DateTime_Computer,Latitude,Longitude,Temperature,Conductivity,Pressure,DateTime_Instrument
DateTime_Computer,Latitude,Longitude,degC,S m-1,dbar,DateTime_Instrument
2020-07-05T00:01:24Z,42.805,6.029,13.2973,4.59973,2470.04,2020-7-05T02:02:10Z
2020-07-05T00:04:27Z,42.805,6.029,13.2969,4.59972,2470.017,2020-7-05T02:05:13Z
2020-07-05T00:07:30Z,42.805,6.029,13.2971,4.59973,2470.007,2020-7-05T02:08:16Z
2020-07-05T00:10:34Z,42.805,6.029,13.2968,4.59971,2470.007,2020-7-05T02:11:20Z
2020-07-05T00:13:37Z,42.805,6.029,13.2971,4.59972,2470.017,2020-7-05T02:14:23Z
2020-07-05T00:16:40Z,42.805,6.029,13.2970,4.59972,2470.053,2020-7-05T02:17:26Z
2020-07-05T00:19:43Z,42.805,6.029,13.2971,4.59973,2470.03,2020-7-05T02:20:29Z
2020-07-05T00:22:47Z,42.805,6.029,13.2971,4.59973,2470.04,2020-7-05T02:23:33Z
2020-07-05T00:25:50Z,42.805,6.029,13.2972,4.59973,2470.04,2020-7-05T02:26:36Z
2020-07-05T00:28:53Z,42.805,6.029,13.2974,4.59973,2470.053,2020-7-05T02:29:39Z
2020-07-05T00:31:56Z,42.805,6.029,13.2971,4.59973,2470.017,2020-7-05T02:32:42Z
2020-07-05T00:35:00Z,42.805,6.029,13.2969,4.59973,2470.017,2020-7-05T02:35:46Z
2020-07-05T00:38:03Z,42.805,6.029,13.2973,4.59973,2470.007,2020-7-05T02:38:49Z
2020-07-05T00:41:06Z,42.805,6.029,13.2968,4.59976,2470.053,2020-7-05T02:41:52Z
2020-07-05T00:44:10Z,42.805,6.029,13.2974,4.59975,2470.017,2020-7-05T02:44:56Z
2020-07-05T00:47:13Z,42.805,6.029,13.2974,4.59972,2470.017,2020-7-05T02:47:59Z
2020-07-05T00:50:16Z,42.805,6.029,13.2974,4.59973,2470.017,2020-7-05T02:51:02Z
2020-07-05T00:53:19Z,42.805,6.029,13.2969,4.59974,2470.003,2020-7-05T02:54:05Z
2020-07-05T00:56:23Z,42.805,6.029,13.2971,4.59972,2470.007,2020-7-05T02:57:08Z
2020-07-05T00:59:26Z,42.805,6.029,13.2972,4.59971,2469.993,2020-7-05T03:00:12Z
2020-07-05T01:02:29Z,42.805,6.029,13.2972,4.59972,2470.017,2020-7-05T03:03:15Z
2020-07-05T01:05:32Z,42.805,6.029,13.2972,4.59973,2469.993,2020-7-05T03:06:18Z
2020-07-05T01:08:36Z,42.805,6.029,13.2969,4.59971,2469.97,2020-7-05T03:09:21Z
2020-07-05T01:11:39Z,42.805,6.029,13.2968,4.59972,2469.993,2020-7-05T03:12:25Z
2020-07-05T01:14:42Z,42.805,6.029,13.2968,4.59980,2469.993,2020-7-05T03:15:28Z
2020-07-05T01:17:45Z,42.805,6.029,13.2970,4.59972,2469.984,2020-7-05T03:18:31Z
2020-07-05T01:20:49Z,42.805,6.029,13.2973,4.59973,2469.979,2020-7-05T03:21:35Z
2020-07-05T01:23:52Z,42.805,6.029,13.2969,4.59982,2469.97,2020-7-05T03:24:38Z
2020-07-05T01:26:55Z,42.805,6.029,13.2968,4.59971,2470.007,2020-7-05T03:27:41Z
2020-07-05T01:29:59Z,42.805,6.029,13.2971,4.59972,2469.979,2020-7-05T03:30:45Z
2020-07-05T01:33:02Z,42.805,6.029,13.2975,4.59974,2469.97,2020-7-05T03:33:48Z
2020-07-05T01:36:05Z,42.805,6.029,13.2973,4.59973,2469.993,2020-7-05T03:36:51Z
2020-07-05T01:39:08Z,42.805,6.029,13.2972,4.59972,2469.97,2020-7-05T03:39:54Z
2020-07-05T01:42:12Z,42.805,6.029,13.2969,4.59973,2469.97,2020-7-05T03:42:57Z
2020-07-05T01:45:15Z,42.805,6.029,13.2974,4.59973,2469.993,2020-7-05T03:46:01Z
2020-07-05T01:48:18Z,42.805,6.029,13.2969,4.59974,2469.97,2020-7-05T03:49:04Z
2020-07-05T01:51:21Z,42.805,6.029,13.2969,4.59973,2469.96,2020-7-05T03:52:07Z
2020-07-05T01:54:24Z,42.805,6.029,13.2971,4.59973,2469.984,2020-7-05T03:55:10Z
2020-07-05T01:57:28Z,42.805,6.029,13.2968,4.59976,2469.984,2020-7-05T03:58:14Z
2020-07-05T02:00:31Z,42.805,6.029,13.2971,4.59973,2469.97,2020-7-05T04:01:17Z
2020-07-05T02:03:34Z,42.805,6.029,13.2970,4.59972,2469.947,2020-7-05T04:04:20Z
2020-07-05T02:06:37Z,42.805,6.029,13.2968,4.59971,2469.97,2020-7-05T04:07:23Z
2020-07-05T02:09:41Z,42.805,6.029,13.2969,4.59974,2469.993,2020-7-05T04:10:27Z
2020-07-05T02:12:44Z,42.805,6.029,13.2971,4.59971,2470.007,2020-7-05T04:13:30Z
2020-07-05T02:15:47Z,42.805,6.029,13.2970,4.59973,2469.97,2020-7-05T04:16:33Z
2020-07-05T02:18:50Z,42.805,6.029,13.2974,4.59973,2469.993,2020-7-05T04:19:36Z
2020-07-05T02:21:53Z,42.805,6.029,13.2968,4.59977,2470.007,2020-7-05T04:22:39Z
2020-07-05T02:24:57Z,42.805,6.029,13.2972,4.59975,2469.984,2020-7-05T04:25:43Z
2020-07-05T02:28:00Z,42.805,6.029,13.2973,4.59972,2469.97,2020-7-05T04:28:46Z
2020-07-05T02:31:03Z,42.805,6.029,13.2970,4.59974,2469.97,2020-7-05T04:31:49Z
2020-07-05T02:34:06Z,42.805,6.029,13.2971,4.59973,2469.993,2020-7-05T04:34:52Z
2020-07-05T02:37:10Z,42.805,6.029,13.2970,4.59972,2469.956,2020-7-05T04:37:56Z
2020-07-05T02:40:13Z,42.805,6.029,13.2971,4.59974,2469.97,2020-7-05T04:40:59Z
2020-07-05T02:43:16Z,42.805,6.029,13.2971,4.59976,2469.993,2020-7-05T04:44:02Z
2020-07-05T02:46:19Z,42.805,6.029,13.2968,4.59974,2469.993,2020-7-05T04:47:05Z
2020-07-05T02:49:23Z,42.805,6.029,13.2971,4.59973,2470.03,2020-7-05T04:50:09Z
2020-07-05T02:52:26Z,42.805,6.029,13.2971,4.59973,2469.984,2020-7-05T04:53:12Z
2020-07-05T02:55:29Z,42.805,6.029,13.2971,4.59973,2469.97,2020-7-05T04:56:15Z
2020-07-05T02:58:32Z,42.805,6.029,13.2971,4.59973,2469.97,2020-7-05T04:59:18Z
2020-07-05T03:01:36Z,42.805,6.029,13.2969,4.59982,2469.993,2020-7-05T05:02:22Z
2020-07-05T03:04:39Z,42.805,6.029,13.2971,4.59976,2470.007,2020-7-05T05:05:25Z
2020-07-05T03:07:42Z,42.805,6.029,13.2973,4.59975,2470.03,2020-7-05T05:08:28Z
2020-07-05T03:10:46Z,42.805,6.029,13.2969,4.59974,2469.97,2020-7-05T05:11:32Z
2020-07-05T03:13:49Z,42.805,6.029,13.2974,4.59978,2469.993,2020-7-05T05:14:35Z
2020-07-05T03:16:52Z,42.805,6.029,13.2972,4.59974,2470.007,2020-7-05T05:17:38Z
2020-07-05T03:19:56Z,42.805,6.029,13.2972,4.59976,2469.993,2020-7-05T05:20:42Z
2020-07-05T03:22:59Z,42.805,6.029,13.2974,4.59977,2470.017,2020-7-05T05:23:45Z
2020-07-05T03:26:03Z,42.805,6.029,13.2970,4.59979,2470.007,2020-7-05T05:26:48Z
2020-07-05T03:29:06Z,42.805,6.029,13.2974,4.59976,2470.007,2020-7-05T05:29:52Z
2020-07-05T03:32:09Z,42.805,6.029,13.2975,4.59976,2470.04,2020-7-05T05:32:55Z
2020-07-05T03:35:12Z,42.805,6.029,13.2975,4.59976,2469.993,2020-7-05T05:35:58Z
2020-07-05T03:38:16Z,42.805,6.029,13.2970,4.59979,2470.017,2020-7-05T05:39:02Z
2020-07-05T03:41:19Z,42.805,6.029,13.2974,4.59981,2470.03,2020-7-05T05:42:05Z
2020-07-05T03:44:22Z,42.805,6.029,13.2986,4.59981,2470.04,2020-7-05T05:45:08Z
2020-07-05T03:47:25Z,42.805,6.029,13.2974,4.59980,2470.03,2020-7-05T05:48:11Z
2020-07-05T03:50:29Z,42.805,6.029,13.2989,4.60008,2470.077,2020-7-05T05:51:15Z
2020-07-05T03:53:32Z,42.805,6.029,13.3002,4.60007,2470.04,2020-7-05T05:54:18Z
2020-07-05T03:56:35Z,42.805,6.029,13.3030,4.60008,2470.007,2020-7-05T05:57:21Z
2020-07-05T03:59:39Z,42.805,6.029,13.3007,4.60004,2470.017,2020-7-05T06:00:25Z
2020-07-05T04:02:42Z,42.805,6.029,13.3009,4.60013,2470.04,2020-7-05T06:03:28Z
2020-07-05T04:05:45Z,42.805,6.029,13.3016,4.60012,2470.03,2020-7-05T06:06:31Z
2020-07-05T04:08:48Z,42.805,6.029,13.2998,4.60014,2470.017,2020-7-05T06:09:34Z
2020-07-05T04:11:52Z,42.805,6.029,13.2992,4.60021,2470.04,2020-7-05T06:12:38Z
2020-07-05T04:14:55Z,42.805,6.029,13.2998,4.60009,2470.04,2020-7-05T06:15:41Z
2020-07-05T04:17:58Z,42.805,6.029,13.2987,4.59998,2470.017,2020-7-05T06:18:44Z
2020-07-05T04:21:02Z,42.805,6.029,13.2998,4.60009,2470.017,2020-7-05T06:21:48Z
2020-07-05T04:24:05Z,42.805,6.029,13.3003,4.59988,2470.04,2020-7-05T06:24:51Z
2020-07-05T04:27:08Z,42.805,6.029,13.3009,4.59996,2470.04,2020-7-05T06:27:54Z
2020-07-05T04:30:11Z,42.805,6.029,13.2993,4.60059,2470.053,2020-7-05T06:30:57Z
2020-07-05T04:33:15Z,42.805,6.029,13.2992,4.60072,2470.077,2020-7-05T06:34:01Z
2020-07-05T04:36:18Z,42.805,6.029,13.2992,4.60044,2470.063,2020-7-05T06:37:04Z
2020-07-05T04:39:21Z,42.805,6.029,13.2992,4.60058,2470.03,2020-7-05T06:40:07Z
2020-07-05T04:42:24Z,42.805,6.029,13.2998,4.60051,2470.053,2020-7-05T06:43:10Z
2020-07-05T04:45:28Z,42.805,6.029,13.3004,4.60031,2470.063,2020-7-05T06:46:14Z
2020-07-05T04:48:31Z,42.805,6.029,13.2993,4.60068,2470.077,2020-7-05T06:49:17Z
2020-07-05T04:51:34Z,42.805,6.029,13.3004,4.60059,2470.04,2020-7-05T06:52:20Z
2020-07-05T04:54:38Z,42.805,6.029,13.3007,4.60029,2470.063,2020-7-05T06:55:23Z
2020-07-05T04:57:41Z,42.805,6.029,13.3002,4.60044,2470.087,2020-7-05T06:58:27Z
2020-07-05T05:00:44Z,42.805,6.029,13.3000,4.60009,2470.063,2020-7-05T07:01:30Z
2020-07-05T05:03:47Z,42.805,6.029,13.3009,4.60021,2470.077,2020-7-05T07:04:33Z
2020-07-05T05:06:50Z,42.805,6.029,13.2995,4.60042,2470.087,2020-7-05T07:07:36Z
2020-07-05T05:09:54Z,42.805,6.029,13.3002,4.60046,2470.11,2020-7-05T07:10:40Z
2020-07-05T05:12:57Z,42.805,6.029,13.3002,4.60001,2470.077,2020-7-05T07:13:43Z
2020-07-05T05:16:00Z,42.805,6.029,13.3016,4.60036,2470.077,2020-7-05T07:16:46Z
2020-07-05T05:19:03Z,42.805,6.029,13.3011,4.60012,2470.1,2020-7-05T07:19:49Z
2020-07-05T05:22:07Z,42.805,6.029,13.3016,4.60007,2470.077,2020-7-05T07:22:53Z
2020-07-05T05:25:10Z,42.805,6.029,13.3000,4.60025,2470.087,2020-7-05T07:25:56Z
2020-07-05T05:28:13Z,42.805,6.029,13.3009,4.60032,2470.1,2020-7-05T07:28:59Z
2020-07-05T05:31:16Z,42.805,6.029,13.2995,4.60041,2470.147,2020-7-05T07:32:02Z
2020-07-05T05:34:20Z,42.805,6.029,13.3011,4.60045,2470.124,2020-7-05T07:35:06Z
2020-07-05T05:37:23Z,42.805,6.029,13.3011,4.60031,2470.11,2020-7-05T07:38:09Z
2020-07-05T05:40:26Z,42.805,6.029,13.3023,4.59998,2470.096,2020-7-05T07:41:12Z
2020-07-05T05:43:29Z,42.805,6.029,13.3016,4.60036,2470.1,2020-7-05T07:44:15Z
2020-07-05T05:46:33Z,42.805,6.029,13.3005,4.60035,2470.124,2020-7-05T07:47:19Z
2020-07-05T05:49:36Z,42.805,6.029,13.3031,4.60024,2470.1,2020-7-05T07:50:22Z
2020-07-05T05:52:39Z,42.805,6.029,13.3018,4.60023,2470.133,2020-7-05T07:53:25Z
2020-07-05T05:55:42Z,42.805,6.029,13.3031,4.60016,2470.124,2020-7-05T07:56:28Z
2020-07-05T05:58:46Z,42.805,6.029,13.3026,4.60006,2470.11,2020-7-05T07:59:31Z
2020-07-05T06:01:49Z,42.805,6.029,13.3015,4.60024,2470.1,2020-7-05T08:02:35Z
2020-07-05T06:04:52Z,42.805,6.029,13.3015,4.60041,2470.11,2020-7-05T08:05:38Z
2020-07-05T06:07:55Z,42.805,6.029,13.2998,4.60059,2470.1,2020-7-05T08:08:41Z
2020-07-05T06:10:59Z,42.805,6.029,13.3011,4.60018,2470.133,2020-7-05T08:11:45Z
2020-07-05T06:14:02Z,42.805,6.029,13.3008,4.60053,2470.124,2020-7-05T08:14:48Z
2020-07-05T06:17:05Z,42.805,6.029,13.2994,4.60027,2470.1,2020-7-05T08:17:51Z
2020-07-05T06:20:08Z,42.805,6.029,13.3000,4.59991,2470.124,2020-7-05T08:20:54Z
2020-07-05T06:23:12Z,42.805,6.029,13.2973,4.60022,2470.087,2020-7-05T08:23:58Z
2020-07-05T06:26:15Z,42.805,6.029,13.2982,4.60001,2470.133,2020-7-05T08:27:01Z
2020-07-05T06:29:18Z,42.805,6.029,13.3027,4.60004,2470.124,2020-7-05T08:30:04Z
2020-07-05T06:32:21Z,42.805,6.029,13.3014,4.59994,2470.11,2020-7-05T08:33:07Z
2020-07-05T06:35:25Z,42.805,6.029,13.3009,4.60066,2470.11,2020-7-05T08:36:11Z
2020-07-05T06:38:28Z,42.805,6.029,13.3011,4.60046,2470.133,2020-7-05T08:39:14Z
2020-07-05T06:41:31Z,42.805,6.029,13.3018,4.60046,2470.087,2020-7-05T08:42:17Z
2020-07-05T06:44:34Z,42.805,6.029,13.3012,4.60020,2470.087,2020-7-05T08:45:20Z
2020-07-05T06:47:38Z,42.805,6.029,13.3012,4.60038,2470.124,2020-7-05T08:48:23Z
2020-07-05T06:50:41Z,42.805,6.029,13.3042,4.59996,2470.063,2020-7-05T08:51:27Z
2020-07-05T06:53:44Z,42.805,6.029,13.3051,4.60012,2470.138,2020-7-05T08:54:30Z
2020-07-05T06:56:47Z,42.805,6.029,13.3040,4.59996,2470.11,2020-7-05T08:57:33Z
2020-07-05T06:59:50Z,42.805,6.029,13.2998,4.60009,2470.124,2020-7-05T09:00:36Z
2020-07-05T07:02:54Z,42.805,6.029,13.3026,4.59996,2470.1,2020-7-05T09:03:40Z
2020-07-05T07:05:57Z,42.805,6.029,13.3010,4.59996,2470.11,2020-7-05T09:06:43Z
2020-07-05T07:09:00Z,42.805,6.029,13.3040,4.60000,2470.11,2020-7-05T09:09:46Z
2020-07-05T07:12:03Z,42.805,6.029,13.3027,4.60006,2470.1,2020-7-05T09:12:49Z
2020-07-05T07:15:07Z,42.805,6.029,13.3017,4.59991,2470.11,2020-7-05T09:15:53Z
2020-07-05T07:18:10Z,42.805,6.029,13.3018,4.59997,2470.147,2020-7-05T09:18:56Z
2020-07-05T07:21:13Z,42.805,6.029,13.3026,4.60019,2470.124,2020-7-05T09:21:59Z
2020-07-05T07:24:17Z,42.805,6.029,13.3009,4.59991,2470.124,2020-7-05T09:25:03Z
2020-07-05T07:27:20Z,42.805,6.029,13.3027,4.59994,2470.087,2020-7-05T09:28:06Z
2020-07-05T07:30:23Z,42.805,6.029,13.3013,4.60003,2470.087,2020-7-05T09:31:09Z
2020-07-05T07:33:27Z,42.805,6.029,13.3010,4.60034,2470.11,2020-7-05T09:34:12Z
2020-07-05T07:36:30Z,42.805,6.029,13.3016,4.60041,2470.124,2020-7-05T09:37:16Z
2020-07-05T07:39:33Z,42.805,6.029,13.3022,4.60005,2470.1,2020-7-05T09:40:19Z
2020-07-05T07:42:36Z,42.805,6.029,13.3023,4.59990,2470.077,2020-7-05T09:43:22Z
2020-07-05T07:45:39Z,42.805,6.029,13.3019,4.59989,2470.063,2020-7-05T09:46:25Z
2020-07-05T07:48:43Z,42.805,6.029,13.3056,4.59997,2470.063,2020-7-05T09:49:29Z
2020-07-05T07:51:46Z,42.805,6.029,13.3052,4.59983,2470.124,2020-7-05T09:52:32Z
2020-07-05T07:54:49Z,42.805,6.029,13.3062,4.59987,2470.077,2020-7-05T09:55:35Z
2020-07-05T07:57:52Z,42.805,6.029,13.3043,4.59988,2470.124,2020-7-05T09:58:38Z
2020-07-05T08:00:56Z,42.805,6.029,13.3024,4.59997,2470.087,2020-7-05T10:01:42Z
2020-07-05T08:03:59Z,42.805,6.029,13.3038,4.60007,2470.087,2020-7-05T10:04:45Z
2020-07-05T08:07:02Z,42.805,6.029,13.3031,4.60026,2470.087,2020-7-05T10:07:48Z
2020-07-05T08:10:05Z,42.805,6.029,13.3046,4.60026,2470.087,2020-7-05T10:10:51Z
2020-07-05T08:13:09Z,42.805,6.029,13.3054,4.60006,2470.077,2020-7-05T10:13:55Z
2020-07-05T08:16:12Z,42.805,6.029,13.3009,4.60019,2470.087,2020-7-05T10:16:58Z
2020-07-05T08:19:15Z,42.805,6.029,13.3033,4.60011,2470.087,2020-7-05T10:20:01Z
2020-07-05T08:22:19Z,42.805,6.029,13.3011,4.60013,2470.1,2020-7-05T10:23:05Z
2020-07-05T08:25:22Z,42.805,6.029,13.3011,4.60031,2470.077,2020-7-05T10:26:08Z
2020-07-05T08:28:25Z,42.805,6.029,13.2998,4.60037,2470.087,2020-7-05T10:29:11Z
2020-07-05T08:31:28Z,42.805,6.029,13.3012,4.59996,2470.04,2020-7-05T10:32:14Z
2020-07-05T08:34:31Z,42.805,6.029,13.3014,4.60017,2470.077,2020-7-05T10:35:17Z
2020-07-05T08:37:35Z,42.805,6.029,13.3005,4.59992,2470.053,2020-7-05T10:38:21Z
2020-07-05T08:40:38Z,42.805,6.029,13.3011,4.59996,2470.077,2020-7-05T10:41:24Z
2020-07-05T08:43:41Z,42.805,6.029,13.3018,4.59993,2470.087,2020-7-05T10:44:27Z
2020-07-05T08:46:44Z,42.805,6.029,13.3017,4.60026,2470.087,2020-7-05T10:47:30Z
2020-07-05T08:49:48Z,42.805,6.029,13.3024,4.60026,2470.063,2020-7-05T10:50:34Z
2020-07-05T08:52:51Z,42.805,6.029,13.3027,4.60027,2470.077,2020-7-05T10:53:37Z
2020-07-05T08:55:54Z,42.805,6.029,13.3027,4.60009,2470.087,2020-7-05T10:56:40Z
2020-07-05T08:58:57Z,42.805,6.029,13.3015,4.60011,2470.053,2020-7-05T10:59:43Z
2020-07-05T09:02:00Z,42.805,6.029,13.3016,4.60044,2470.04,2020-7-05T11:02:46Z
2020-07-05T09:05:04Z,42.805,6.029,13.3046,4.60045,2470.077,2020-7-05T11:05:50Z
2020-07-05T09:08:07Z,42.805,6.029,13.3041,4.60034,2470.053,2020-7-05T11:08:53Z
2020-07-05T09:11:10Z,42.805,6.029,13.3042,4.60025,2470.077,2020-7-05T11:11:56Z
2020-07-05T09:14:14Z,42.805,6.029,13.3046,4.60024,2470.017,2020-7-05T11:14:59Z
2020-07-05T09:17:17Z,42.805,6.029,13.3053,4.60046,2470.077,2020-7-05T11:18:03Z
2020-07-05T09:20:20Z,42.805,6.029,13.3058,4.60029,2470.1,2020-7-05T11:21:06Z
2020-07-05T09:23:23Z,42.805,6.029,13.3063,4.60043,2470.04,2020-7-05T11:24:09Z
2020-07-05T09:26:27Z,42.805,6.029,13.3058,4.60052,2470.077,2020-7-05T11:27:13Z
2020-07-05T09:29:30Z,42.805,6.029,13.3046,4.60080,2470.063,2020-7-05T11:30:16Z
2020-07-05T09:32:33Z,42.805,6.029,13.3036,4.60087,2470.04,2020-7-05T11:33:19Z
2020-07-05T09:35:36Z,42.805,6.029,13.3051,4.60051,2470.03,2020-7-05T11:36:22Z
2020-07-05T09:38:40Z,42.805,6.029,13.3071,4.60049,2470.077,2020-7-05T11:39:26Z
2020-07-05T09:41:43Z,42.805,6.029,13.3062,4.60024,2470.053,2020-7-05T11:42:29Z
2020-07-05T09:44:46Z,42.805,6.029,13.3072,4.60022,2470.053,2020-7-05T11:45:32Z
2020-07-05T09:47:50Z,42.805,6.029,13.3056,4.60044,2470.04,2020-7-05T11:48:36Z
2020-07-05T09:50:53Z,42.805,6.029,13.3055,4.60023,2470.03,2020-7-05T11:51:39Z
2020-07-05T09:53:56Z,42.805,6.029,13.3064,4.60024,2470.04,2020-7-05T11:54:42Z
2020-07-05T09:56:59Z,42.805,6.029,13.2983,4.60032,2470.053,2020-7-05T11:57:45Z
2020-07-05T10:00:03Z,42.805,6.029,13.2990,4.60049,2470.017,2020-7-05T12:00:49Z
2020-07-05T10:03:06Z,42.805,6.029,13.3026,4.60012,2470.053,2020-7-05T12:03:52Z
2020-07-05T10:06:09Z,42.805,6.029,13.2979,4.60050,2470.007,2020-7-05T12:06:55Z
2020-07-05T10:09:12Z,42.805,6.029,13.2986,4.60056,2470.017,2020-7-05T12:09:58Z
2020-07-05T10:12:16Z,42.805,6.029,13.2979,4.60053,2470.04,2020-7-05T12:13:02Z
2020-07-05T10:15:19Z,42.805,6.029,13.2979,4.60075,2470.017,2020-7-05T12:16:05Z
2020-07-05T10:18:22Z,42.805,6.029,13.2972,4.60094,2470.007,2020-7-05T12:19:08Z
2020-07-05T10:21:26Z,42.805,6.029,13.2971,4.60074,2470.04,2020-7-05T12:22:12Z
2020-07-05T10:24:29Z,42.805,6.029,13.2973,4.60117,2470.04,2020-7-05T12:25:15Z
2020-07-05T10:27:32Z,42.805,6.029,13.2972,4.60087,2470.03,2020-7-05T12:28:18Z
2020-07-05T10:30:35Z,42.805,6.029,13.2974,4.60051,2469.993,2020-7-05T12:31:21Z
2020-07-05T10:33:39Z,42.805,6.029,13.2973,4.60009,2469.97,2020-7-05T12:34:25Z
2020-07-05T10:36:42Z,42.805,6.029,13.2972,4.60005,2470.007,2020-7-05T12:37:28Z
2020-07-05T10:39:45Z,42.805,6.029,13.2970,4.60003,2470.007,2020-7-05T12:40:31Z
2020-07-05T10:42:49Z,42.805,6.029,13.2971,4.60006,2470.04,2020-7-05T12:43:35Z
2020-07-05T10:45:52Z,42.805,6.029,13.2968,4.59995,2469.97,2020-7-05T12:46:38Z
2020-07-05T10:48:55Z,42.805,6.029,13.2971,4.59998,2470.03,2020-7-05T12:49:41Z
2020-07-05T10:51:58Z,42.805,6.029,13.2969,4.59999,2470.017,2020-7-05T12:52:44Z
2020-07-05T10:55:02Z,42.805,6.029,13.2971,4.60004,2470.017,2020-7-05T12:55:48Z
2020-07-05T10:58:05Z,42.805,6.029,13.2971,4.60005,2469.984,2020-7-05T12:58:51Z
2020-07-05T11:01:08Z,42.805,6.029,13.2970,4.59996,2469.993,2020-7-05T13:01:54Z
2020-07-05T11:04:11Z,42.805,6.029,13.2971,4.59997,2470.03,2020-7-05T13:04:57Z
2020-07-05T11:07:14Z,42.805,6.029,13.2973,4.59996,2469.993,2020-7-05T13:08:00Z
2020-07-05T11:10:18Z,42.805,6.029,13.2974,4.60004,2469.984,2020-7-05T13:11:04Z
2020-07-05T11:13:21Z,42.805,6.029,13.2973,4.60000,2469.97,2020-7-05T13:14:07Z
2020-07-05T11:16:24Z,42.805,6.029,13.2971,4.59988,2469.979,2020-7-05T13:17:10Z
2020-07-05T11:19:27Z,42.805,6.029,13.2971,4.59982,2469.97,2020-7-05T13:20:13Z
2020-07-05T11:22:31Z,42.805,6.029,13.2970,4.59992,2469.993,2020-7-05T13:23:17Z
2020-07-05T11:25:34Z,42.805,6.029,13.2971,4.59982,2469.993,2020-7-05T13:26:20Z
2020-07-05T11:28:37Z,42.805,6.029,13.2972,4.59978,2470.007,2020-7-05T13:29:23Z
2020-07-05T11:31:40Z,42.805,6.029,13.2971,4.59978,2469.97,2020-7-05T13:32:26Z
2020-07-05T11:34:44Z,42.805,6.029,13.2974,4.59976,2469.984,2020-7-05T13:35:30Z
2020-07-05T11:37:47Z,42.805,6.029,13.2969,4.59976,2469.97,2020-7-05T13:38:33Z
2020-07-05T11:40:50Z,42.805,6.029,13.2974,4.59976,2470.007,2020-7-05T13:41:36Z
2020-07-05T11:43:53Z,42.805,6.029,13.2974,4.59978,2469.984,2020-7-05T13:44:39Z
2020-07-05T11:46:57Z,42.805,6.029,13.2969,4.59976,2469.97,2020-7-05T13:47:43Z
2020-07-05T11:50:00Z,42.805,6.029,13.2973,4.59979,2469.984,2020-7-05T13:50:46Z
2020-07-05T11:53:03Z,42.805,6.029,13.2971,4.59977,2469.97,2020-7-05T13:53:49Z
2020-07-05T11:56:07Z,42.805,6.029,13.2973,4.59978,2469.993,2020-7-05T13:56:53Z
2020-07-05T11:59:10Z,42.805,6.029,13.2969,4.59977,2469.993,2020-7-05T13:59:56Z
2020-07-05T12:02:13Z,42.805,6.029,13.2971,4.59977,2469.984,2020-7-05T14:02:59Z
2020-07-05T12:05:16Z,42.805,6.029,13.2973,4.59978,2469.947,2020-7-05T14:06:02Z
2020-07-05T12:08:20Z,42.805,6.029,13.2972,4.59978,2469.947,2020-7-05T14:09:06Z
2020-07-05T12:11:23Z,42.805,6.029,13.2972,4.59975,2469.96,2020-7-05T14:12:09Z
2020-07-05T12:14:26Z,42.805,6.029,13.2971,4.59974,2469.96,2020-7-05T14:15:12Z
2020-07-05T12:17:30Z,42.805,6.029,13.2974,4.59978,2469.97,2020-7-05T14:18:16Z
2020-07-05T12:20:33Z,42.805,6.029,13.2968,4.59986,2469.923,2020-7-05T14:21:19Z
2020-07-05T12:23:36Z,42.805,6.029,13.2973,4.59993,2469.937,2020-7-05T14:24:22Z
2020-07-05T12:26:39Z,42.805,6.029,13.2969,4.59988,2469.923,2020-7-05T14:27:25Z
2020-07-05T12:29:43Z,42.805,6.029,13.2973,4.59981,2469.97,2020-7-05T14:30:29Z
2020-07-05T12:32:46Z,42.805,6.029,13.2971,4.59976,2469.923,2020-7-05T14:33:32Z
2020-07-05T12:35:49Z,42.805,6.029,13.2976,4.59981,2469.947,2020-7-05T14:36:35Z
2020-07-05T12:38:52Z,42.805,6.029,13.2976,4.59976,2469.909,2020-7-05T14:39:38Z
2020-07-05T12:41:56Z,42.805,6.029,13.2971,4.59976,2469.96,2020-7-05T14:42:41Z
2020-07-05T12:44:59Z,42.805,6.029,13.2969,4.59974,2469.937,2020-7-05T14:45:45Z
2020-07-05T12:48:02Z,42.805,6.029,13.2969,4.59973,2469.96,2020-7-05T14:48:48Z
2020-07-05T12:51:05Z,42.805,6.029,13.2968,4.59973,2469.914,2020-7-05T14:51:51Z
2020-07-05T12:54:09Z,42.805,6.029,13.2966,4.59976,2469.947,2020-7-05T14:54:55Z
2020-07-05T12:57:12Z,42.805,6.029,13.2969,4.59975,2469.947,2020-7-05T14:57:58Z
2020-07-05T13:00:15Z,42.805,6.029,13.2971,4.59973,2469.923,2020-7-05T15:01:01Z
2020-07-05T13:03:18Z,42.805,6.029,13.2971,4.59974,2469.947,2020-7-05T15:04:04Z
2020-07-05T13:06:22Z,42.805,6.029,13.2975,4.59975,2469.947,2020-7-05T15:07:08Z
2020-07-05T13:09:25Z,42.805,6.029,13.2969,4.59974,2469.96,2020-7-05T15:10:11Z
2020-07-05T13:12:28Z,42.805,6.029,13.2969,4.59973,2469.96,2020-7-05T15:13:14Z
2020-07-05T13:15:31Z,42.805,6.029,13.2973,4.59974,2469.96,2020-7-05T15:16:17Z
2020-07-05T13:18:35Z,42.805,6.029,13.2974,4.59977,2469.9,2020-7-05T15:19:21Z
2020-07-05T13:21:38Z,42.805,6.029,13.2970,4.59978,2469.937,2020-7-05T15:22:24Z
2020-07-05T13:24:41Z,42.805,6.029,13.2968,4.59977,2469.947,2020-7-05T15:25:27Z
2020-07-05T13:27:44Z,42.805,6.029,13.2968,4.59978,2469.923,2020-7-05T15:28:30Z
2020-07-05T13:30:48Z,42.805,6.029,13.2966,4.59976,2469.937,2020-7-05T15:31:34Z
2020-07-05T13:33:51Z,42.805,6.029,13.2971,4.59972,2469.97,2020-7-05T15:34:37Z
2020-07-05T13:36:54Z,42.805,6.029,13.2968,4.59975,2469.923,2020-7-05T15:37:40Z
2020-07-05T13:39:57Z,42.805,6.029,13.2970,4.59973,2469.9,2020-7-05T15:40:43Z
2020-07-05T13:43:01Z,42.805,6.029,13.2971,4.59976,2469.923,2020-7-05T15:43:47Z
2020-07-05T13:46:04Z,42.805,6.029,13.2969,4.59973,2469.96,2020-7-05T15:46:50Z
2020-07-05T13:49:07Z,42.805,6.029,13.2972,4.59975,2469.947,2020-7-05T15:49:53Z
2020-07-05T13:52:10Z,42.805,6.029,13.2971,4.59978,2469.937,2020-7-05T15:52:56Z
2020-07-05T13:55:14Z,42.805,6.029,13.2972,4.59974,2469.89,2020-7-05T15:56:00Z
2020-07-05T13:58:17Z,42.805,6.029,13.2967,4.59973,2469.9,2020-7-05T15:59:03Z
2020-07-05T14:01:20Z,42.805,6.029,13.2970,4.59971,2469.914,2020-7-05T16:02:06Z
2020-07-05T14:04:23Z,42.805,6.029,13.2975,4.59976,2469.923,2020-7-05T16:05:09Z
2020-07-05T14:07:27Z,42.805,6.029,13.2974,4.59978,2469.923,2020-7-05T16:08:13Z
2020-07-05T14:10:30Z,42.805,6.029,13.2974,4.59971,2469.9,2020-7-05T16:11:16Z
2020-07-05T14:13:33Z,42.805,6.029,13.2973,4.59973,2469.923,2020-7-05T16:14:19Z
2020-07-05T14:16:36Z,42.805,6.029,13.2973,4.59973,2469.923,2020-7-05T16:17:22Z
2020-07-05T14:19:40Z,42.805,6.029,13.2970,4.59971,2469.923,2020-7-05T16:20:26Z
2020-07-05T14:22:43Z,42.805,6.029,13.2971,4.59972,2469.9,2020-7-05T16:23:29Z
2020-07-05T14:25:46Z,42.805,6.029,13.2971,4.59971,2469.937,2020-7-05T16:26:32Z
2020-07-05T14:28:49Z,42.805,6.029,13.2973,4.59973,2469.89,2020-7-05T16:29:35Z
2020-07-05T14:31:53Z,42.805,6.029,13.2972,4.59973,2469.933,2020-7-05T16:32:39Z
2020-07-05T14:34:56Z,42.805,6.029,13.2971,4.59973,2469.923,2020-7-05T16:35:42Z
2020-07-05T14:37:59Z,42.805,6.029,13.2977,4.59976,2469.9,2020-7-05T16:38:45Z
2020-07-05T14:41:02Z,42.805,6.029,13.2974,4.59973,2469.947,2020-7-05T16:41:48Z
2020-07-05T14:44:05Z,42.805,6.029,13.2975,4.59973,2469.923,2020-7-05T16:44:51Z
2020-07-05T14:47:09Z,42.805,6.029,13.2972,4.59973,2469.914,2020-7-05T16:47:55Z
2020-07-05T14:50:12Z,42.805,6.029,13.2977,4.59972,2469.923,2020-7-05T16:50:58Z
2020-07-05T14:53:15Z,42.805,6.029,13.2972,4.59971,2469.923,2020-7-05T16:54:01Z
2020-07-05T14:56:19Z,42.805,6.029,13.2974,4.59971,2469.914,2020-7-05T16:57:05Z
2020-07-05T14:59:22Z,42.805,6.029,13.2974,4.59974,2469.96,2020-7-05T17:00:08Z
2020-07-05T15:02:25Z,42.805,6.029,13.2973,4.59972,2469.96,2020-7-05T17:03:11Z
2020-07-05T15:05:28Z,42.805,6.029,13.2974,4.59971,2469.937,2020-7-05T17:06:14Z
2020-07-05T15:08:32Z,42.805,6.029,13.2975,4.59973,2469.914,2020-7-05T17:09:18Z
2020-07-05T15:11:35Z,42.805,6.029,13.2972,4.59972,2469.947,2020-7-05T17:12:21Z
2020-07-05T15:14:38Z,42.805,6.029,13.2972,4.59971,2469.947,2020-7-05T17:15:24Z